GW4413 Weather Reports


Display with metric or nautical units.
time (UTC)temp
F
wind
direction
speed
MPH
gust
MPH
rain 1hr
in
rain 24hr
in
rain mn
in
humidity
%
barometer
mb
20260505004513 69 53 0.0 2.0 0.00 0.00 0.00 54 1010.4
20260505004006 69 53 0.0 2.0 0.00 0.00 0.00 53 1010.4
20260505003503 70 53 0.0 2.0 0.00 0.00 0.00 53 1010.5
20260505003012 70 40 0.0 1.0 0.00 0.00 0.00 52 1010.5
20260505002504 70 143 0.0 2.0 0.00 0.00 0.00 52 1010.5
20260505002007 70 143 0.0 2.0 0.00 0.00 0.00 52 1010.6
20260505001516 70 143 0.0 1.0 0.00 0.00 0.00 52 1010.5
20260505001007 70 143 0.0 2.0 0.00 0.00 0.00 50 1010.5
20260505000510 70 143 0.0 2.0 0.00 0.00 0.00 49 1010.4
20260505000015 70 285 0.0 3.0 0.00 0.00 0.00 49 1010.4
20260504235508 70 285 0.0 3.0 0.00 0.00 0.00 48 1010.4
20260504234005 71 285 0.0 2.0 0.00 0.00 0.00 49 1010.4
20260504233504 71 285 0.0 2.0 0.00 0.00 0.00 48 1010.4
20260504233018 71 285 0.0 2.0 0.00 0.00 0.00 49 1010.3
20260504232508 71 285 0.0 2.0 0.00 0.00 0.00 48 1010.3
20260504232007 72 285 0.0 1.0 0.00 0.00 0.00 47 1010.3
20260504231516 72 285 0.0 1.0 0.00 0.00 0.00 47 1010.4
20260504231009 73 285 0.0 2.0 0.00 0.00 0.00 47 1010.4
20260504230509 73 285 0.0 2.0 0.00 0.00 0.00 46 1010.4
20260504230018 73 285 0.0 2.0 0.00 0.00 0.00 44 1010.4
20260504225505 73 285 0.0 2.0 0.00 0.00 0.00 44 1010.4
20260504225006 73 285 1.0 2.0 0.00 0.00 0.00 43 1010.5
20260504224517 74 285 0.0 2.0 0.00 0.00 0.00 42 1010.5
20260504224010 74 285 0.0 2.0 0.00 0.00 0.00 46 1010.6
20260504223507 74 285 0.0 2.0 0.00 0.00 0.00 45 1010.6
20260504223015 74 285 1.0 2.0 0.00 0.00 0.00 43 1010.5
20260504222509 74 285 0.0 2.0 0.00 0.00 0.00 41 1010.7
20260504222007 74 285 0.0 2.0 0.00 0.00 0.00 43 1010.7
20260504221513 74 285 0.0 2.0 0.00 0.00 0.00 44 1010.7
20260504221008 74 219 0.0 2.0 0.00 0.00 0.00 40 1010.7
20260504220506 74 219 0.0 2.0 0.00 0.00 0.00 44 1010.7
20260504220012 73 271 0.0 3.0 0.00 0.00 0.00 42 1010.8
20260504215506 73 271 1.0 3.0 0.00 0.00 0.00 43 1010.7
20260504215008 73 317 0.0 2.0 0.00 0.00 0.00 45 1010.7
20260504214513 73 317 0.0 2.0 0.00 0.00 0.00 43 1010.9
20260504214006 73 317 0.0 2.0 0.00 0.00 0.00 46 1010.9
20260504213505 73 317 0.0 2.0 0.00 0.00 0.00 47 1011.0
20260504212007 73 352 0.0 2.0 0.00 0.00 0.00 45 1011.0
20260504211514 73 352 0.0 2.0 0.00 0.00 0.00 44 1011.1
20260504210507 73 352 0.0 3.0 0.00 0.00 0.00 43 1011.1
20260504210019 73 304 1.0 3.0 0.00 0.00 0.00 45 1011.1
20260504205508 73 23 0.0 2.0 0.00 0.00 0.00 47 1011.2
20260504205008 73 33 0.0 2.0 0.00 0.00 0.00 45 1011.1
20260504204513 73 20 1.0 2.0 0.00 0.00 0.00 47 1011.1
20260504204010 73 20 0.0 2.0 0.00 0.00 0.00 48 1011.1
20260504203509 72 20 0.0 2.0 0.00 0.00 0.00 45 1011.1
20260504202506 71 20 1.0 3.0 0.00 0.00 0.00 47 1011.1
20260504201513 70 42 0.0 2.0 0.00 0.00 0.00 50 1011.1
20260504200015 69 42 0.0 2.0 0.00 0.00 0.00 54 1011.2
20260504195507 69 42 0.0 2.0 0.00 0.00 0.00 52 1011.2
20260504195006 68 17 0.0 2.0 0.00 0.00 0.00 54 1011.2
20260504194516 68 17 0.0 2.0 0.00 0.00 0.00 52 1011.3
20260504194003 68 17 0.0 2.0 0.00 0.00 0.00 52 1011.2
20260504193503 68 17 0.0 2.0 0.00 0.00 0.00 52 1011.3
20260504192502 68 63 0.0 2.0 0.00 0.00 0.00 53 1011.3
20260504192002 68 63 0.0 3.0 0.00 0.00 0.00 53 1011.4
20260504191003 69 58 1.0 4.0 0.00 0.00 0.00 50 1011.4
20260504190502 70 65 1.0 4.0 0.00 0.00 0.00 48 1011.4
20260504190018 70 59 1.0 4.0 0.00 0.00 0.00 47 1011.3
20260504185504 70 23 0.0 2.0 0.00 0.00 0.00 49 1011.3
20260504185003 70 23 0.0 2.0 0.00 0.00 0.00 48 1011.3
20260504184520 69 23 0.0 2.0 0.00 0.00 0.00 49 1011.3
20260504184008 69 344 0.0 1.0 0.00 0.00 0.00 50 1011.3
20260504183509 69 344 0.0 1.0 0.00 0.00 0.00 50 1011.4
20260504183014 69 43 0.0 2.0 0.00 0.00 0.00 50 1011.5
20260504182503 68 43 0.0 3.0 0.00 0.00 0.00 51 1011.5
20260504182008 68 26 0.0 3.0 0.00 0.00 0.00 52 1011.5
20260504181515 68 69 0.0 1.0 0.00 0.00 0.00 52 1011.6
20260504181004 67 69 0.0 2.0 0.00 0.00 0.00 51 1011.6
20260504180014 67 54 0.0 2.0 0.00 0.00 0.00 53 1011.5
20260504175504 67 54 0.0 2.0 0.00 0.00 0.00 52 1011.5
20260504174516 67 343 0.0 2.0 0.00 0.00 0.00 56 1011.4
20260504174003 67 296 0.0 1.0 0.00 0.00 0.00 57 1011.3
20260504173507 67 296 0.0 2.0 0.00 0.00 0.00 56 1011.3
20260504173017 67 296 0.0 2.0 0.00 0.00 0.00 57 1011.4
20260504172503 66 20 0.0 2.0 0.00 0.00 0.00 57 1011.3
20260504172006 66 306 0.0 2.0 0.00 0.00 0.00 56 1011.3
20260504171004 65 20 0.0 1.0 0.00 0.00 0.00 60 1011.3
20260504170507 65 20 0.0 1.0 0.00 0.00 0.00 59 1011.4
20260504151005 58 300 0.0 1.0 0.00 0.00 0.00 69 1011.0
20260504150510 58 300 0.0 1.0 0.00 0.00 0.00 71 1010.9
20260504141010 55 300 0.0 1.0 0.00 0.00 0.00 70 1010.4
20260504140508 54 300 0.0 1.0 0.00 0.00 0.00 69 1010.4
20260504130507 54 300 0.0 0.0 0.00 0.00 0.00 70 1010.2
20260504110507 56 300 0.0 0.0 0.00 0.00 0.00 67 1010.2
20260504100510 57 300 0.0 0.0 0.00 0.00 0.00 65 1010.1
20260504081528 60 300 0.0 1.0 0.00 0.00 0.00 53 1009.8
20260504081011 60 300 0.0 1.0 0.00 0.00 0.00 54 1009.8
20260504080508 60 300 0.0 1.0 0.00 0.00 0.00 53 1009.8
20260504050506 65 300 0.0 1.0 0.00 0.00 0.00 44 1010.3
20260504050019 66 300 0.0 1.0 0.00 0.00 0.00 46 1010.3
20260504045503 66 300 0.0 1.0 0.00 0.00 0.00 47 1010.3
20260504045007 66 300 0.0 1.0 0.00 0.00 0.00 45 1010.4
20260504044521 66 300 0.0 1.0 0.00 0.00 0.00 45 1010.4
20260504044004 66 300 0.0 1.0 0.00 0.00 0.00 46 1010.3
20260504043508 67 300 0.0 1.0 0.00 0.00 0.00 44 1010.3
20260504043027 67 300 0.0 1.0 0.00 0.00 0.00 44 1010.3
20260504042506 67 300 0.0 1.0 0.00 0.00 0.00 45 1010.2
20260504042007 67 300 0.0 1.0 0.00 0.00 0.00 44 1010.2
20260504041522 67 300 0.0 1.0 0.00 0.00 0.00 44 1010.3
20260504041003 67 300 0.0 1.0 0.00 0.00 0.00 43 1010.2
20260504040509 67 300 0.0 1.0 0.00 0.00 0.00 42 1010.2
20260504040024 67 300 0.0 1.0 0.00 0.00 0.00 44 1010.2
20260504035504 68 300 0.0 1.0 0.00 0.00 0.00 43 1010.1
20260504035007 68 300 0.0 1.0 0.00 0.00 0.00 44 1010.0
20260504034518 68 300 0.0 1.0 0.00 0.00 0.00 42 1009.9
20260504034006 68 300 0.0 1.0 0.00 0.00 0.00 44 1009.9
20260504033511 68 300 0.0 1.0 0.00 0.00 0.00 43 1009.9
20260504033019 68 300 0.0 1.0 0.00 0.00 0.00 45 1009.9
20260504032505 69 300 0.0 1.0 0.00 0.00 0.00 44 1010.0
20260504032009 69 300 0.0 1.0 0.00 0.00 0.00 44 1009.9
20260504031519 69 300 0.0 0.0 0.00 0.00 0.00 42 1009.9
20260504031004 69 300 0.0 0.0 0.00 0.00 0.00 41 1009.9
20260504030512 70 300 0.0 0.0 0.00 0.00 0.00 43 1009.9
20260504030018 70 300 0.0 1.0 0.00 0.00 0.00 41 1010.0
20260504025507 70 300 0.0 1.0 0.00 0.00 0.00 41 1010.1
20260504025008 70 300 0.0 1.0 0.00 0.00 0.00 40 1010.1
20260504024518 71 300 0.0 1.0 0.00 0.00 0.00 41 1010.1
20260504024004 71 300 0.0 1.0 0.00 0.00 0.00 42 1010.2
20260504023507 71 300 0.0 1.0 0.00 0.00 0.00 40 1010.2
20260504023024 71 300 0.0 1.0 0.00 0.00 0.00 40 1010.3
20260504022504 71 300 0.0 1.0 0.00 0.00 0.00 39 1010.2
20260504022008 71 300 0.0 1.0 0.00 0.00 0.00 38 1010.2
20260504021520 71 300 0.0 1.0 0.00 0.00 0.00 38 1010.3
20260504021004 72 300 0.0 1.0 0.00 0.00 0.00 38 1010.3
20260504020508 72 300 0.0 1.0 0.00 0.00 0.00 38 1010.3
20260504020020 72 300 0.0 2.0 0.00 0.00 0.00 39 1010.5
20260504015503 72 300 0.0 2.0 0.00 0.00 0.00 38 1010.6
20260504015009 72 300 0.0 1.0 0.00 0.00 0.00 38 1010.6
20260504014529 72 300 0.0 1.0 0.00 0.00 0.00 38 1010.6
20260504014004 72 300 0.0 1.0 0.00 0.00 0.00 38 1010.6
20260504013510 72 300 0.0 1.0 0.00 0.00 0.00 37 1010.6
20260504013021 73 300 0.0 1.0 0.00 0.00 0.00 36 1010.7
20260504012504 73 300 0.0 1.0 0.00 0.00 0.00 36 1010.7
20260504012007 73 300 0.0 1.0 0.00 0.00 0.00 35 1010.8
20260504011522 73 300 0.0 2.0 0.00 0.00 0.00 33 1010.9
20260504011005 73 300 0.0 2.0 0.00 0.00 0.00 34 1011.0
20260504010509 74 300 0.0 1.0 0.00 0.00 0.00 34 1011.1
20260504010020 74 300 0.0 2.0 0.00 0.00 0.00 32 1011.2
20260504005505 74 300 0.0 2.0 0.00 0.00 0.00 33 1011.2
20260504005011 74 270 0.0 2.0 0.00 0.00 0.00 34 1011.3